DECAYED

STARLINK-2000, 47595 (Decayed)

Orbit data source: Space-Track

STARLINK-2000, 47595 was a payload satellite owned by SpaceX/Seattle (US) in LEO that was launched on Thu, 04 Feb 2021 UTC via an FALCON 9 launch vehicle from the Air Force Eastern Test Range (AFETR). Payload-class satellites include a variety of spacecraft equipped with specific instruments for various scientific and technological missions. These include communications satellites like Starlink; space stations such as the ISS; scientific satellites like the Hubble; Earth observation satellites from companies like Planet Labs, Umbra, and HawkEye 360; GPS; miniature CubeSats for education and research; and military/defense satellites.

Not visible in the next 10 days
Identifier
47595, 2021-009AZ
Orbit
Decayed
Country
Flag of USUS
Related business
Manufacturer
SpaceX/Seattle
Mission
Decayed Commercial Communications
Bus & Motor
STARLINK, Unknown motor
Mass
260 kg wet, ~248 kg dry
Launch date (UTC)
2021-02-04 (5 years ago)
Launch vehicle
FALCON 9
Launch site
Air Force Eastern Test Range (AFETR)
Object type
Payload
Rocket body
Debris
Shape & HBR
Box + 1 Pan, 10.1 m
Radar Cross Section
13.562 m², Large (>1 m²)

Expand to show TLE details & history
Last TLE update: 1 year ago

TLE from 1 year ago
0 STARLINK-2000
1 47595U 21009AZ  25046.24752405  .13649268  12403-4  51788-3 0  9993
2 47595  53.0195 299.3636 0005483 224.8203 229.5282 16.43835243223291
Epoch: 2025-02-15T05:56Z
TLE epoch observation values (Epoch: 2025-02-15T05:56:26.077Z)
Latitude
52.96448°
Longitude
161.89143°
Altitude
164.37 km
Speed
7.813 km/s
True Right ascension
02h 25m 59s
True Declination
52° 47' 02"
Sunlit
Object was in daylight at epoch
Visualization orbit readout
Latitude
Unknown
Longitude
Unknown
Altitude
Unknown
Speed
Unknown
Apparent Right ascension
Unknown
Apparent Declination
Unknown
Sunlit
N/A
Visualization observer readout
Local Sidereal Time
21:37:34
Azimuth
Unknown
Elevation
Unknown
Doppler factor
Unknown
Orbital elements
Apogee altitude
159.495 km
Perigee altitude
152.33 km
Semi-major axis
6,534.049 km
Eccentricity
0.00055
Inclination
53.0195°
RAAN
299.3636°
Arg. of periapsis
224.8203°
True anomaly
229.48042°
Mean anomaly
229.5282°
Eccentric anomaly
229.50431°
Mean motion
4.10932 °/min
Orbital period
87.61 mins
BSTAR
0.00051788
Loading maneuver chart data...
Computing Atmospheric mass density...

Documentation

Showing up to 5 results
|